CZ-6A DEB, 55228

Orbit data source: Space-Track

CZ-6A DEB, 55228 is space debris in SSO originally from a launch on Fri, 11 Nov 2022 UTC launched from the Taiyaun Space Center, China (TSC). Debris objects in space refer to the collection of defunct objects orbiting the Earth. Examples of debris include non-operational satellites, rocket bodies, and fragments generated from explosions, collisions, or faulty payload assembly.

Loading next visibility...
Identifier
55228, 2022-151WV
Orbit
SSO
Country
Flag of CNCN / PRC
Related business
Manufacturer
SAST
Mission
Spacecraft
Bus & Motor
Unknown
Mass
Unknown
Launch date (UTC)
2022-11-11 (4 years ago)
Launch vehicle
Unknown
Launch site
Taiyaun Space Center, China (TSC)
Object type
Payload
Rocket body
Debris
Shape & HBR
Unknown shape, 0.1 m
Radar Cross Section
Medium (>0.1 m² and <1 m²)

Expand to show TLE details & history
Last TLE update: 2 days ago

TLE from 2 days ago
0 CZ-6A DEB
1 55228U 22151WV  26171.15771409  .00010883  00000-0  14718-2 0  9997
2 55228  98.6259 242.7702 0060159 257.2557 102.1924 14.77950663185596
Epoch: 2026-06-20T03:47Z
TLE epoch observation values (Epoch: 2026-06-20T03:47:06.497Z)
Latitude
0.00005°
Longitude
-82.38324°
Altitude
647.952 km
Speed
7.529 km/s
True Right ascension
16h 11m 04s
True Declination
0° 00' 00"
Sunlit
Object was in full shadow at epoch
Visualization orbit readout
Latitude
Unknown
Longitude
Unknown
Altitude
Unknown
Speed
Unknown
Apparent Right ascension
Unknown
Apparent Declination
Unknown
Sunlit
N/A
Visualization observer readout
Local Sidereal Time
00:39:40
Azimuth
Unknown
Elevation
Unknown
Doppler factor
Unknown
Orbital elements
Apogee altitude
675.055 km
Perigee altitude
590.7 km
Semi-major axis
7,011.015 km
Eccentricity
0.00602
Inclination
98.6259°
RAAN
242.7702°
Arg. of periapsis
257.2557°
True anomaly
102.86514°
Mean anomaly
102.1924°
Eccentric anomaly
102.52888°
Mean motion
3.69719 °/min
Orbital period
97.37 mins
BSTAR
0.0014718
Loading maneuver chart data...
Computing Atmospheric mass density...
Loading historical data...
Loading historical data...
Loading historical data...
Loading historical data...
Loading historical data...
Loading historical data...
Loading historical data...

Documentation

Showing up to 5 results
|